Location: Lussas
(44.6119°N, 4.4726°E)
Time: 06:42:03
(UTC+00:00)

Cosmos 1680 Rocket - Pass Details

Date: 26 November 2020
Orbit: 760 x 781 km, 74.1° (Epoch: 18 January)

Event Time Altitude Azimuth Distance (km) Brightness Sun altitude
Exits shadow 06:05:01 - 329° (NNW) 2,892 6.0 -8.6°
Reaches altitude 10° 06:06:32 10° 323° (NW) 2,344 5.5 -8.3°
Maximum altitude 06:11:21 36° 258° (WSW) 1,221 4.2 -7.5°
Drops below altitude 10° 06:16:09 10° 193° (SSW) 2,325 6.1 -6.8°
Sets 06:18:40 0° 185° (S) 3,246 7.0 -6.3°
